Theta_e
323 325 328 329 330 333 335 337 338 338 339 339 340 340 340 339 340 341 341 342 341 341 340 339 339 339 339 340 340 341 341 340 340 339 339 338 337 336 335 336 335 335 334 333 334 333 332 331 330 329 331 334 336 337 339 339 336 337 337 335 333 333 334 336 338 341 343 345 345 343 343 342 342 343 344 344 344 344 343 343 343 342 341 342 345
317 320 323 324 325 328 331 334 336 336 337 337 338 338 339 339 340 340 340 341 340 341 341 340 340 340 339 340 340 341 341 341 341 341 341 340 340 338 338 337 336 336 335 335 337 338 337 338 336 334 334 335 337 337 337 338 337 334 333 333 333 332 331 333 335 338 340 343 345 343 342 342 342 343 344 345 344 345 345 344 344 343 340 342 344
315 318 320 322 322 325 327 329 332 333 334 335 336 336 337 337 338 339 339 339 339 339 340 340 341 341 341 341 341 341 341 341 341 341 341 341 341 340 340 339 338 338 337 336 338 339 339 339 339 338 337 337 337 336 335 337 338 336 333 330 332 335 331 329 331 334 338 340 343 344 343 342 342 343 343 345 345 345 345 344 344 343 341 342 344
315 317 319 321 321 325 328 327 327 329 329 330 332 334 335 335 336 337 337 338 338 338 339 339 339 340 340 340 340 340 341 341 340 340 341 341 341 341 341 340 340 339 338 338 339 339 338 338 339 339 338 337 336 335 334 334 334 336 336 332 330 334 335 331 331 333 335 338 342 344 343 342 342 342 342 344 346 346 345 344 344 343 341 342 343
313 315 317 320 322 325 327 327 327 326 327 327 328 329 332 334 335 334 335 335 336 337 337 338 338 338 338 339 339 340 340 340 340 340 341 340 341 341 341 341 340 340 340 340 340 339 338 338 338 339 338 338 337 336 336 333 330 329 334 336 332 331 333 333 330 332 336 338 341 343 343 342 342 343 342 343 346 346 345 344 344 343 341 343 344
311 313 315 318 321 323 325 326 326 326 326 326 326 326 328 330 332 332 332 332 334 334 335 336 336 336 337 337 338 339 339 339 340 340 340 340 340 340 340 341 341 340 340 341 341 340 338 338 338 338 338 337 337 337 337 336 333 328 328 332 336 332 329 330 330 331 336 339 341 343 343 342 342 343 343 344 346 346 345 345 344 343 341 343 344
307 311 313 315 317 319 321 322 323 323 324 324 325 325 326 327 328 328 329 329 330 331 332 333 334 335 335 336 336 337 337 337 338 339 339 339 339 339 339 340 340 340 340 340 340 340 339 338 339 338 337 337 339 339 339 339 337 335 332 328 332 334 330 330 331 331 335 340 341 342 342 342 342 343 342 344 346 346 346 344 344 343 341 343 345
303 306 308 311 313 315 316 318 319 319 320 321 321 322 323 324 325 325 326 326 326 327 327 328 330 332 333 334 335 335 336 336 336 337 337 337 338 338 339 339 339 340 339 340 340 340 340 339 339 338 336 336 337 339 340 339 339 338 338 334 329 331 331 331 331 331 333 338 341 342 342 342 343 343 342 344 346 346 345 344 345 344 341 344 345
298 300 302 304 305 307 310 312 314 315 316 316 317 318 319 320 320 321 322 323 323 324 324 325 326 327 329 330 331 332 332 333 334 335 335 336 336 337 338 338 338 339 339 339 339 339 340 340 339 339 336 334 333 335 339 340 340 339 339 339 334 329 329 330 329 330 332 336 341 342 342 342 343 343 342 344 345 346 346 344 345 344 343 344 344
297 297 298 299 299 301 302 304 306 308 310 310 311 312 313 314 315 316 317 318 320 320 321 322 323 324 324 325 326 327 328 329 330 331 333 333 334 335 336 337 337 337 338 338 338 338 339 339 339 339 338 336 332 332 335 338 339 339 338 339 338 335 331 328 326 328 330 333 338 341 341 341 343 343 342 344 345 345 346 344 344 344 344 344 344
296 297 296 297 297 297 298 298 299 300 302 303 304 305 306 307 308 309 311 313 315 316 317 318 319 320 321 322 323 323 324 325 325 326 328 330 331 332 333 334 335 335 336 336 337 337 337 338 338 338 339 339 335 332 331 333 335 336 337 337 338 338 337 332 326 325 328 330 333 338 340 341 343 343 342 344 345 344 345 345 344 344 344 344 344
296 296 296 297 296 296 296 297 297 297 298 298 299 299 299 300 301 302 303 306 307 309 310 312 313 314 316 318 320 320 321 322 323 323 324 325 326 327 330 331 332 333 333 335 335 336 336 336 336 336 337 338 337 335 332 331 331 332 335 336 336 337 337 337 333 326 326 329 331 333 338 341 342 342 342 344 344 344 344 345 344 344 344 344 344
295 295 296 296 296 296 296 296 296 297 297 297 297 297 297 297 297 298 298 300 301 302 302 303 305 307 310 312 315 317 318 319 320 321 322 322 323 324 326 327 328 329 330 331 333 334 335 334 335 335 335 336 336 337 336 334 332 331 332 333 334 334 335 337 337 332 326 326 329 330 333 338 341 342 342 343 344 344 344 344 344 344 344 344 344
295 295 295 295 295 296 295 296 296 296 296 296 296 296 296 296 296 296 297 297 297 297 297 298 299 300 302 304 307 309 312 315 317 318 319 319 320 321 323 324 325 327 328 328 330 331 333 333 334 334 335 335 334 333 335 336 335 333 332 332 333 333 333 333 336 337 332 326 325 329 333 336 340 341 342 342 343 344 344 344 344 343 344 343 344
295 294 294 294 295 295 295 295 295 295 295 295 295 295 296 295 296 296 296 296 296 296 296 296 296 297 297 298 299 301 303 306 309 311 313 314 315 317 319 321 322 325 326 327 328 329 330 331 332 333 334 334 333 331 332 333 334 333 332 332 332 333 333 332 333 335 336 332 326 328 334 335 337 341 342 342 342 343 344 344 344 343 343 343 344
294 294 294 294 294 294 294 294 294 295 295 295 295 295 295 295 295 295 295 295 295 295 295 296 296 296 296 296 296 296 297 298 300 302 304 306 308 311 314 317 319 322 323 325 326 327 327 328 329 330 331 332 332 331 331 332 332 333 333 331 331 331 332 333 333 333 335 336 332 329 331 334 336 338 341 342 341 342 344 344 344 344 344 344 345
294 294 294 294 294 294 294 294 294 294 294 295 294 294 294 294 295 294 295 294 295 295 295 295 295 295 295 295 295 295 296 296 296 296 297 299 300 302 305 309 312 315 317 320 322 323 324 325 325 326 328 329 330 330 330 332 332 332 333 332 331 330 330 332 333 333 333 334 335 333 330 331 334 337 339 341 341 341 342 343 344 344 344 344 345
294 294 294 294 294 294 294 294 294 294 294 294 294 294 294 294 294 294 294 294 294 294 294 294 294 295 295 295 295 295 295 295 295 295 295 296 296 297 298 300 302 305 307 310 314 317 319 320 321 323 325 326 327 328 329 330 331 332 332 333 333 331 329 331 333 333 332 332 334 335 333 330 331 335 337 339 341 341 341 342 342 344 344 344 344
294 294 294 294 294 294 294 294 294 294 294 294 294 294 294 294 294 294 294 294 294 294 294 294 294 294 294 294 294 295 295 295 295 295 295 295 295 295 295 296 296 298 299 301 304 307 310 312 315 319 323 324 324 326 327 328 329 330 331 332 333 333 330 330 332 333 332 332 332 334 335 333 331 332 336 339 340 341 341 340 340 343 344 343 344
294 294 294 294 293 293 293 293 293 294 294 294 294 294 294 294 294 294 293 294 293 293 294 294 294 294 294 294 294 294 294 294 294 294 295 295 295 295 295 295 295 295 295 296 298 300 302 305 308 312 316 320 322 323 324 325 327 328 329 330 332 334 332 330 331 332 333 332 332 332 333 334 334 331 333 337 339 340 341 340 338 341 343 342 343
294 294 294 293 293 293 293 293 293 293 294 294 294 294 294 294 294 294 294 294 294 293 293 293 293 293 293 293 293 294 294 294 294 294 294 294 294 294 294 295 295 295 295 295 295 296 297 299 301 304 308 312 317 320 322 323 325 326 328 329 331 332 333 332 331 330 331 332 332 332 332 333 335 334 332 335 339 339 340 341 339 339 342 342 341
293 293 293 293 293 293 293 293 293 293 293 294 293 293 293 294 294 294 294 294 294 294 294 294 293 293 293 293 293 293 293 293 293 293 293 294 294 294 294 294 294 294 294 294 295 295 295 296 298 299 301 305 310 314 318 321 322 324 326 327 328 330 332 333 332 331 330 331 331 331 331 331 334 336 334 332 336 340 339 340 340 338 340 342 342
293 293 293 293 292 292 293 293 293 293 293 293 293 293 294 294 294 294 294 294 294 294 294 294 294 293 293 293 293 292 292 292 292 292 292 293 293 293 293 293 294 294 294 294 294 294 294 294 295 296 298 300 304 307 312 316 320 322 324 326 327 328 331 333 333 332 330 330 331 331 331 330 331 335 336 333 332 338 340 339 339 338 337 340 341
293 293 293 293 292 292 292 293 292 293 293 293 293 293 293 293 294 294 294 294 294 294 294 294 294 294 293 293 293 292 292 292 292 292 292 292 292 292 293 293 293 293 293 293 294 294 294 294 294 295 296 297 299 301 303 308 314 319 322 324 326 327 328 330 332 332 332 331 331 330 331 331 331 331 334 335 332 334 339 339 339 338 337 338 341
293 293 293 292 292 292 292 292 292 292 292 292 292 292 292 293 293 293 294 294 294 294 294 294 294 294 293 293 293 292 293 292 292 292 292 292 292 292 292 292 292 293 293 293 293 293 293 294 294 294 295 295 295 297 298 301 305 312 317 321 324 327 329 330 331 332 332 332 331 330 330 330 330 330 331 334 334 333 335 339 339 338 338 338 340
293 293 293 292 292 292 292 292 292 292 292 292 292 292 292 292 292 292 292 293 293 293 293 293 293 293 293 292 292 292 292 292 292 292 292 292 292 291 291 291 292 292 292 293 293 293 293 293 294 294 294 294 294 295 295 297 299 303 309 315 320 324 328 331 331 331 330 331 331 331 330 329 330 331 331 332 334 335 334 336 338 338 337 337 338
293 293 293 292 292 292 292 292 292 292 291 291 291 291 291 291 291 291 291 291 292 292 292 292 292 291 291 291 291 291 291 291 291 291 291 291 291 291 291 291 291 292 292 292 292 293 293 293 294 294 294 294 294 294 294 295 297 298 302 307 313 318 322 327 330 330 329 329 330 331 331 330 329 330 331 331 332 335 335 335 337 337 337 337 337
294 293 293 292 292 292 292 292 292 291 291 291 291 291 291 291 291 290 290 290 290 290 291 290 290 290 290 290 290 290 290 290 290 290 290 290 290 290 291 291 291 291 291 292 292 292 293 293 294 295 295 294 294 294 294 295 295 296 299 302 306 312 317 320 325 329 330 329 329 330 331 331 330 328 330 330 330 333 335 335 334 336 337 337 338
293 293 293 292 292 292 292 292 291 291 290 290 290 290 290 290 290 290 289 290 290 290 290 290 290 290 290 290 289 290 290 289 289 289 289 289 289 289 290 290 290 291 291 291 291 292 292 293 293 294 295 295 295 294 294 295 295 296 298 300 303 308 313 316 320 325 329 330 329 329 329 330 330 329 329 330 330 331 334 335 334 336 337 338 338
293 293 292 292 292 291 291 291 291 290 290 290 290 290 290 290 289 289 289 289 289 289 289 290 290 289 289 289 289 288 288 288 288 289 289 288 288 289 289 290 290 290 291 291 291 291 292 292 293 294 295 295 295 295 295 296 296 296 296 298 300 304 309 313 317 320 325 328 329 328 329 329 330 330 329 329 330 330 332 334 335 336 337 337 337
293 292 292 292 291 291 291 291 290 290 290 290 290 290 290 289 289 289 289 289 289 289 289 289 289 289 289 288 288 288 288 287 287 287 287 288 288 288 289 289 290 290 290 290 291 291 291 291 292 293 294 295 295 295 296 297 297 297 297 296 298 301 305 310 314 316 320 325 327 328 328 328 329 329 329 329 329 330 331 332 334 335 336 337 337
292 292 292 292 291 291 291 290 290 290 290 290 290 290 289 289 289 289 288 289 288 289 289 289 289 289 288 288 287 287 287 287 286 286 287 287 287 287 288 288 288 288 288 289 289 289 290 290 291 292 293 294 295 296 296 297 298 297 297 297 298 299 301 306 311 314 317 321 326 328 328 328 328 328 329 329 329 329 330 331 333 334 335 336 336
292 292 292 291 291 291 291 290 290 289 289 289 289 289 289 288 288 288 288 288 288 288 288 288 288 288 288 287 287 286 287 286 286 286 286 286 286 287 287 286 286 286 286 286 287 288 289 290 290 291 293 293 294 295 296 297 298 297 297 297 298 297 298 301 305 309 314 317 321 326 328 329 328 328 328 329 329 329 329 329 331 332 334 334 335
292 292 291 291 291 291 290 290 289 289 289 289 288 288 288 288 288 288 288 287 287 287 288 288 288 288 287 286 286 286 286 286 286 286 286 286 285 285 286 285 285 285 285 285 285 286 287 289 290 291 292 293 294 295 296 297 297 297 297 297 297 296 296 297 298 301 307 313 317 321 326 328 328 328 328 328 329 328 328 328 329 331 332 333 334
292 291 291 291 291 290 290 289 289 289 288 288 288 288 288 288 288 287 287 287 287 287 287 288 288 288 287 287 286 286 286 286 286 285 285 284 284 284 284 285 285 284 284 284 284 285 286 287 289 290 292 293 294 295 296 297 297 297 296 296 296 297 296 296 297 298 301 308 313 317 322 326 327 328 328 328 328 328 328 327 328 329 330 332 333
292 291 291 290 290 290 289 289 289 288 288 288 288 288 287 287 287 287 287 287 286 287 287 288 288 288 288 287 287 286 286 286 285 284 284 284 284 284 284 284 284 284 284 284 284 284 284 285 286 289 291 293 294 295 296 296 297 296 296 296 296 297 297 296 297 298 300 304 308 312 318 324 327 327 328 329 329 328 328 328 327 328 328 330 331
291 291 290 290 290 290 289 289 289 288 288 288 287 287 287 287 287 287 286 286 286 286 287 288 288 288 288 287 286 285 285 285 284 284 284 284 284 284 283 283 283 283 283 283 284 284 284 284 285 287 290 292 294 295 296 296 296 295 295 296 296 297 297 297 297 298 299 301 304 308 313 320 326 328 328 328 329 328 328 328 327 327 328 329 330
291 291 290 290 290 289 289 289 288 288 288 287 287 287 287 287 287 287 286 286 286 286 286 288 288 288 287 285 285 285 285 284 284 284 284 284 284 284 284 283 283 283 283 283 283 283 283 284 284 285 287 290 293 294 295 295 295 295 295 296 296 296 296 297 297 297 298 299 301 304 308 315 321 326 329 329 328 328 328 328 328 327 327 328 328
291 290 290 290 290 289 288 288 288 288 287 287 287 287 287 287 287 287 287 286 286 285 286 288 288 287 286 284 284 284 284 284 284 284 284 284 284 284 284 283 283 283 283 283 283 283 283 284 284 285 286 287 290 292 293 294 294 295 296 296 296 296 296 297 297 297 297 298 300 302 305 311 317 322 327 328 328 328 328 328 328 328 327 327 327
291 290 290 290 289 289 288 288 288 288 287 287 286 286 286 287 287 286 287 286 285 285 287 288 287 286 285 284 283 283 283 283 284 284 283 284 283 283 283 283 282 282 282 282 282 282 283 284 284 285 285 286 288 290 292 293 295 295 296 296 295 296 296 296 297 298 298 298 300 302 304 308 314 319 324 327 328 328 328 328 327 327 327 327 327
290 290 290 289 289 288 288 288 288 287 287 287 286 286 286 285 285 285 285 286 285 286 287 288 287 286 285 284 284 284 284 284 284 283 283 283 283 282 282 281 281 281 281 282 282 283 283 283 283 284 285 286 287 289 291 293 294 295 295 295 295 295 296 296 297 298 298 297 298 302 306 310 313 316 321 325 327 327 327 327 327 327 327 327 327
290 290 290 289 289 288 288 288 288 287 287 286 286 285 285 284 284 284 284 285 285 285 286 287 286 286 285 285 284 284 283 283 283 283 282 282 281 281 281 280 280 281 281 282 282 282 282 282 282 282 283 284 285 287 289 291 293 294 294 295 295 295 296 296 297 297 297 298 298 300 305 310 315 317 320 324 326 327 327 327 327 327 326 327 327
290 290 290 289 289 288 288 288 287 287 286 286 285 285 285 284 284 283 283 283 284 284 284 285 284 284 284 284 283 283 282 282 282 282 281 281 280 280 280 280 280 280 281 281 281 281 281 281 281 281 281 282 283 285 288 291 292 293 294 295 295 296 296 296 297 298 299 301 303 305 307 310 314 317 321 324 325 326 327 327 327 327 327 326 326
290 290 290 289 289 288 288 288 287 287 286 286 285 285 284 284 283 283 283 283 283 283 283 283 282 282 282 282 282 281 281 281 280 280 280 280 279 279 279 279 279 279 279 279 279 279 279 280 280 281 281 282 283 284 286 289 292 293 294 295 295 296 296 296 296 297 298 299 301 305 310 314 317 319 322 324 326 326 326 326 326 326 326 326 326
290 290 290 289 289 288 288 288 287 287 286 285 285 284 284 284 283 283 283 283 283 283 282 282 282 281 281 281 281 281 280 280 279 279 279 279 279 279 279 279 279 279 278 278 279 279 279 279 280 280 281 281 282 283 284 287 290 292 294 295 295 296 296 296 296 296 296 296 297 299 302 306 311 318 323 324 325 326 326 325 326 326 326 326 326
290 290 290 289 289 288 288 287 287 286 286 285 285 284 284 283 283 282 282 282 282 282 282 282 281 281 281 281 281 281 280 279 279 279 279 279 279 278 278 278 278 278 278 278 278 278 279 279 280 280 280 280 281 282 283 285 288 291 293 294 295 295 296 296 296 296 296 296 297 297 297 299 305 313 320 324 325 325 325 326 326 326 326 326 326
290 290 290 289 288 288 288 287 287 286 286 285 285 284 283 283 282 282 281 281 280 281 280 280 280 280 280 280 280 280 279 279 279 279 279 279 278 278 278 278 278 277 277 277 277 277 278 278 278 278 278 279 279 280 281 283 286 288 291 293 294 295 296 296 297 297 297 297 297 297 298 299 303 305 310 317 324 325 325 325 326 326 326 326 326
290 290 290 289 288 288 288 287 286 286 285 285 284 284 283 282 282 281 281 281 280 280 280 279 279 279 279 279 279 278 278 278 278 278 278 278 278 278 277 277 277 277 277 276 276 276 276 276 276 277 277 278 279 279 280 281 284 286 288 290 293 295 296 297 297 297 297 297 297 297 297 298 299 301 302 307 315 323 326 325 325 326 326 326 326
290 290 290 289 288 288 287 287 286 286 285 285 284 283 283 282 281 281 280 280 280 279 279 279 279 278 278 278 278 278 277 277 277 277 278 278 278 277 277 277 277 276 276 276 276 276 276 276 276 277 278 278 278 278 279 279 281 283 285 288 291 293 295 297 297 297 298 298 298 297 297 298 298 299 301 303 308 315 323 326 325 325 326 326 325
290 290 289 289 288 288 287 287 286 285 285 284 284 283 282 281 281 280 280 280 279 279 278 278 278 278 278 277 277 277 277 277 277 277 277 277 277 277 276 276 276 276 276 276 276 276 276 276 276 276 276 277 277 277 277 277 278 280 283 286 289 291 294 296 297 297 297 298 298 297 297 298 298 298 300 302 306 310 317 323 325 325 325 325 325
290 289 289 288 288 288 287 286 286 285 284 284 283 283 282 281 280 280 279 279 278 278 278 278 278 277 277 277 277 277 277 277 277 277 277 277 276 276 276 276 276 276 275 275 275 275 275 275 275 275 275 275 275 276 276 277 277 279 280 283 287 289 292 294 296 296 297 297 297 297 297 298 298 299 300 302 304 306 311 318 323 325 325 325 325
Wind_Speed
18 17 16 16 16 14 15 15 13 11 9 8 8 7 6 6 5 6 6 6 7 6 6 6 7 7 8 8 8 8 7 7 7 8 8 9 9 9 8 8 9 10 10 10 10 10 12 13 13 13 12 11 11 10 11 11 10 9 10 9 9 9 9 9 10 10 11 12 11 11 11 10 11 11 10 10 11 11 13 14 14 13 14 15 16
16 17 15 15 14 14 14 14 15 13 11 11 9 8 7 7 7 6 6 7 8 8 8 7 8 9 9 10 10 10 9 9 8 9 8 8 9 9 10 10 11 11 11 11 10 10 11 12 13 12 12 11 12 12 12 12 12 11 12 11 10 10 10 10 11 12 12 13 13 12 12 11 10 11 11 10 11 11 14 15 15 15 16 17 17
15 16 15 15 15 16 16 14 14 13 12 12 11 10 8 8 9 9 8 8 9 9 9 9 10 10 10 10 11 12 11 11 10 10 10 10 10 10 11 11 12 13 13 13 11 11 12 13 13 13 12 12 12 13 13 13 14 12 12 13 11 11 11 11 12 13 13 13 14 14 13 12 11 11 11 11 11 12 15 17 17 18 17 19 19
15 15 16 16 16 18 19 16 15 15 14 13 13 13 12 11 11 11 11 10 10 9 10 11 12 12 12 12 12 12 12 12 12 13 12 12 12 12 12 12 12 13 14 14 12 12 12 12 13 14 14 14 14 14 14 14 15 14 13 13 13 12 11 11 12 13 14 13 14 15 15 14 12 12 11 11 12 13 16 18 20 19 18 19 20
15 15 16 16 18 20 20 19 17 17 16 16 15 14 14 13 13 13 13 12 11 10 11 11 12 12 12 12 13 13 13 13 13 14 13 14 13 13 13 14 14 13 13 13 13 13 12 13 14 14 14 15 16 16 16 16 15 15 15 14 13 13 13 12 13 13 14 14 14 15 16 15 13 13 12 11 13 15 18 19 21 21 20 21 21
16 15 15 16 19 21 20 20 19 19 18 18 18 17 15 14 14 14 13 13 13 12 12 12 12 12 12 13 13 13 13 13 13 14 14 14 14 14 14 14 15 14 13 14 13 13 13 13 15 15 14 14 15 17 18 17 16 15 15 15 14 14 14 14 13 13 14 14 15 16 17 16 15 14 12 12 14 16 19 20 21 21 21 22 22
17 16 16 16 18 19 19 20 20 20 19 19 19 18 17 16 15 15 14 14 14 14 13 13 13 13 13 13 13 13 13 13 13 14 14 14 15 15 15 16 16 16 15 15 15 15 14 14 15 15 14 13 14 16 17 18 17 16 15 15 14 14 15 14 14 14 14 14 16 17 17 17 16 15 13 13 16 17 19 21 21 21 22 23 24
19 19 19 19 19 18 17 18 19 19 19 19 19 18 18 17 16 16 15 15 15 15 14 14 14 13 13 13 14 13 13 14 14 14 14 14 15 16 16 16 17 17 17 17 17 16 15 16 16 15 15 14 15 16 16 17 17 17 17 16 15 14 14 15 15 14 14 15 16 17 18 18 17 16 15 15 17 17 20 22 21 21 23 24 24
22 22 21 22 22 20 19 18 18 18 18 18 18 18 18 17 17 17 16 16 15 14 14 14 14 14 13 13 13 13 13 13 14 14 14 14 15 15 15 16 17 17 18 18 18 17 16 16 17 16 15 16 16 17 17 17 17 18 17 17 16 15 14 15 16 16 15 15 16 18 19 18 17 17 17 18 18 17 19 21 22 22 23 24 25
22 22 22 22 23 21 21 21 20 19 19 18 18 18 18 17 17 17 17 16 16 15 14 14 14 13 13 13 13 14 13 13 13 13 13 13 14 15 15 15 16 17 18 19 19 18 18 17 17 17 17 17 18 18 18 18 19 19 18 18 18 17 16 15 16 17 17 16 17 18 20 19 19 19 19 19 18 18 20 21 22 24 24 25 26
20 21 21 21 22 21 21 21 21 21 20 20 19 18 18 18 18 17 17 17 17 15 15 14 14 14 14 13 13 13 14 14 13 13 13 13 13 14 14 15 15 17 18 19 19 19 19 19 19 18 18 18 19 19 19 20 20 20 20 19 19 19 19 17 16 18 19 18 18 19 21 21 20 21 20 19 20 21 22 23 25 26 25 26 26
19 20 21 20 21 21 20 20 20 21 21 21 20 19 18 18 17 17 17 17 17 16 15 15 14 14 14 14 13 13 13 14 14 14 14 14 13 14 14 14 14 15 17 17 18 19 20 20 20 20 20 19 19 19 19 20 21 21 21 20 19 19 20 20 18 18 20 20 20 20 21 22 23 22 22 21 21 23 23 25 27 27 27 27 27
19 20 21 20 21 21 20 20 20 20 20 20 20 19 19 18 17 17 17 17 17 17 16 16 15 15 15 14 13 13 13 13 14 14 14 14 14 14 13 13 14 15 16 17 18 18 19 20 20 21 20 20 20 20 20 20 22 23 23 23 22 21 20 21 20 20 21 22 22 21 21 23 25 24 24 23 22 24 25 25 27 28 28 28 28
20 21 21 21 21 21 21 21 20 20 20 20 20 19 19 18 18 17 17 17 17 17 17 16 16 16 15 15 14 13 13 13 13 13 14 14 14 14 14 14 14 15 17 18 18 18 18 19 20 20 20 20 21 22 22 21 22 23 24 25 25 23 22 21 21 21 22 23 24 23 22 23 25 26 25 24 24 26 26 26 28 29 29 29 29
20 21 22 22 22 21 21 21 21 21 21 21 21 21 20 20 19 19 19 18 18 17 17 17 17 16 16 16 15 15 14 14 13 13 14 14 14 15 15 15 13 14 16 16 18 19 19 19 20 21 21 21 21 22 23 23 23 24 24 25 26 26 24 23 23 23 23 24 24 25 24 23 25 27 27 25 25 27 27 27 29 30 30 30 29
20 20 21 22 22 22 22 22 21 21 21 21 21 21 21 21 20 20 20 20 19 19 19 18 17 17 17 17 17 16 16 16 15 15 15 15 15 15 16 16 14 14 14 14 15 18 19 19 20 20 21 22 22 22 23 24 25 25 25 25 26 27 27 25 24 24 24 25 25 26 26 25 25 27 29 28 27 28 28 28 29 30 30 30 29
19 19 20 21 21 21 21 21 21 21 21 21 21 22 22 21 21 21 21 21 21 20 20 19 19 18 18 18 18 18 18 17 17 17 17 16 16 16 16 16 17 16 16 15 15 16 17 19 20 21 21 22 23 23 23 24 25 26 27 28 27 28 28 28 27 26 26 26 27 28 28 28 26 27 30 30 29 30 29 29 30 31 31 30 29
18 18 19 20 20 21 21 21 21 20 20 20 21 21 21 21 21 21 22 22 22 21 21 21 20 20 19 19 19 19 19 19 19 19 18 19 18 18 17 18 18 18 19 18 18 19 19 20 21 21 22 23 24 24 24 25 25 26 28 30 29 28 29 29 29 28 28 28 28 29 30 30 29 27 30 31 31 30 30 31 31 31 31 30 30
18 18 19 19 19 20 20 20 20 20 20 20 20 20 20 20 21 21 22 22 22 22 22 22 21 21 21 21 20 20 20 20 20 20 20 21 20 20 19 19 20 20 20 20 20 20 20 21 21 20 21 22 24 24 25 26 25 25 27 29 31 30 29 30 31 31 30 30 29 30 31 31 31 29 29 31 32 31 30 32 32 30 30 31 30
17 17 18 18 18 19 19 19 19 20 19 19 19 19 20 20 20 21 21 22 22 22 22 22 22 22 22 22 22 22 22 22 22 22 22 22 22 22 22 21 21 21 21 21 21 21 21 21 21 21 21 22 23 25 26 26 27 27 26 27 30 31 31 31 32 33 32 32 31 31 32 32 32 32 30 30 33 34 33 32 34 31 30 33 32
17 16 17 17 17 18 18 18 18 19 18 18 18 19 19 19 19 20 20 21 22 22 23 23 23 23 23 23 23 23 24 24 24 24 24 23 23 23 23 23 23 23 22 22 22 22 22 22 22 22 22 23 23 24 25 25 26 27 27 27 28 31 34 34 33 34 35 34 34 33 33 33 33 33 33 32 32 36 36 34 33 33 32 33 34
16 16 16 15 16 16 17 17 17 17 17 17 17 18 18 18 19 19 19 20 21 21 22 23 24 24 24 25 25 25 25 25 25 25 25 25 25 25 25 25 25 24 24 24 23 23 23 23 23 23 23 24 24 24 24 24 25 25 27 27 28 31 34 36 36 36 36 36 36 36 34 34 34 33 34 34 33 36 39 37 33 35 36 35 37
15 15 14 14 14 15 15 15 16 16 16 16 16 17 17 17 18 18 19 19 20 21 22 22 23 24 24 24 25 26 26 26 26 26 26 26 26 26 26 26 26 26 26 26 25 24 24 24 24 24 24 24 24 24 24 24 24 24 25 26 28 30 32 35 37 36 37 37 37 37 37 36 35 33 34 35 36 36 39 39 35 36 38 37 39
13 13 13 13 13 13 14 14 14 14 15 16 16 16 16 16 16 17 18 18 19 20 21 22 23 23 24 24 25 25 26 26 27 27 28 28 28 28 27 28 28 28 29 29 28 27 26 26 25 25 25 25 25 25 26 25 24 23 23 25 27 29 32 34 36 36 37 38 38 38 38 38 37 35 35 36 37 37 39 40 37 38 40 39 39
12 11 11 11 12 12 12 12 13 13 14 15 16 16 16 16 16 17 17 18 18 19 19 20 21 22 23 23 24 24 25 26 27 28 29 29 30 30 29 29 29 29 30 31 31 30 29 29 28 27 27 27 27 27 27 26 26 25 24 24 25 29 32 34 36 37 37 38 39 40 40 40 39 37 37 37 38 38 39 41 40 39 40 41 41
10 9 10 10 10 11 11 11 11 12 13 14 15 15 15 16 16 17 18 18 19 19 19 20 21 21 22 22 23 24 25 26 27 28 29 30 30 31 31 30 30 30 30 31 31 31 31 31 31 30 29 29 29 29 28 27 27 26 26 25 26 27 30 34 37 38 38 39 40 40 41 42 42 40 37 38 39 39 39 42 44 42 41 42 43
9 8 8 9 9 9 9 9 10 11 12 12 13 13 14 14 15 16 17 18 19 19 20 21 21 21 21 22 23 24 25 26 27 27 28 29 30 31 31 31 31 31 30 30 31 31 30 31 31 31 31 31 31 30 29 29 28 28 28 28 28 28 29 32 34 36 36 38 41 41 42 43 44 42 39 39 41 40 40 43 46 46 45 44 44
8 8 8 8 8 8 8 8 9 10 10 11 11 11 12 12 13 14 16 17 18 19 20 20 21 21 21 21 22 23 24 25 26 27 28 29 29 29 29 29 30 31 31 31 31 31 30 30 30 31 32 32 32 32 32 31 30 30 29 30 30 30 30 31 31 34 37 39 41 42 43 43 45 45 43 41 42 42 42 44 46 48 48 46 45
9 9 8 7 7 7 7 7 7 8 9 10 10 10 11 11 13 14 15 16 17 18 19 20 20 21 21 21 21 21 22 23 25 26 27 27 27 27 27 27 28 30 31 32 31 31 31 31 30 30 31 32 32 32 33 33 32 31 30 30 30 30 31 31 31 33 36 38 40 43 44 44 45 46 46 44 43 43 43 44 45 47 50 49 45
10 9 8 7 6 6 6 6 7 8 8 9 9 10 11 11 12 13 15 16 17 18 19 20 20 20 20 19 18 18 20 21 23 25 26 25 25 25 26 26 27 28 30 31 32 32 33 33 32 31 30 31 32 32 32 33 33 33 32 31 31 30 31 32 32 32 34 38 40 42 44 45 46 46 47 46 44 44 44 45 45 45 48 51 49
10 8 8 6 5 5 5 5 6 7 7 8 9 10 10 11 11 12 14 15 17 18 19 20 20 19 19 19 18 19 21 22 23 25 25 24 24 24 24 24 25 26 27 28 30 31 33 34 33 32 31 31 31 31 31 32 33 33 33 33 32 31 32 32 33 33 33 37 40 42 44 46 46 46 47 47 46 45 44 45 46 45 45 49 52
10 9 8 6 4 4 4 4 5 6 7 7 8 8 9 10 10 11 13 14 16 17 18 19 19 20 19 19 20 22 23 24 25 25 25 25 24 25 25 24 25 25 25 27 29 30 32 33 33 33 32 32 32 31 30 30 32 32 33 33 32 32 33 32 32 34 34 35 38 41 43 44 46 47 47 48 48 47 45 45 45 45 44 46 51
11 9 8 5 4 3 3 3 5 5 6 6 7 7 8 8 9 11 12 14 15 16 17 18 19 20 20 20 21 23 24 25 26 26 27 26 25 26 27 26 26 25 26 28 29 29 29 31 33 33 33 33 32 31 30 30 31 31 32 32 33 34 34 34 34 34 35 36 37 39 41 43 45 47 48 48 49 49 48 47 46 45 45 45 49
12 10 7 5 4 3 2 2 4 4 5 5 6 6 7 8 9 10 11 13 14 15 17 18 19 20 21 21 22 24 25 26 27 27 27 25 25 25 26 26 26 27 28 29 28 28 28 29 30 32 34 33 33 33 31 32 31 31 32 32 34 36 36 36 37 36 36 36 37 38 40 43 45 46 48 48 49 50 50 50 49 48 46 45 47
13 11 8 6 6 4 3 2 3 3 4 4 5 6 7 8 9 10 11 12 14 15 17 18 20 21 22 23 24 26 26 26 26 26 26 24 24 24 24 25 26 28 29 29 28 27 27 28 28 30 33 33 34 34 32 33 33 32 32 32 34 35 37 38 38 38 37 36 37 37 39 42 45 45 47 47 48 48 49 51 51 51 50 48 48
14 12 8 8 7 5 3 2 3 3 4 4 6 6 7 8 9 11 11 13 14 15 16 19 20 22 23 24 26 27 27 26 26 26 26 26 25 24 24 24 26 27 28 28 28 28 28 29 28 28 31 33 34 35 34 34 34 34 34 33 33 34 36 38 38 38 38 36 37 38 38 41 45 47 47 46 46 47 48 49 50 51 52 51 50
15 12 10 10 8 6 3 1 3 3 4 4 5 6 8 9 10 11 12 13 15 15 16 19 21 22 23 25 26 27 26 26 27 28 28 28 27 26 26 26 27 28 28 27 27 29 30 30 29 26 29 32 33 34 34 33 34 36 36 35 34 34 35 37 38 38 38 38 39 39 39 40 44 47 47 47 47 46 46 47 49 50 51 52 52
15 12 10 10 8 5 2 2 3 4 4 4 6 7 9 10 11 12 13 14 15 15 16 19 21 22 23 24 25 26 26 27 28 29 29 30 29 29 29 29 29 29 29 28 28 29 30 29 31 30 29 31 33 33 32 33 35 37 38 38 36 34 35 36 38 40 39 40 41 41 41 41 42 44 45 46 47 47 46 46 47 48 49 50 52
16 13 11 9 7 4 2 2 3 4 4 5 7 8 10 11 12 13 14 16 16 15 17 21 22 22 22 23 25 26 26 27 28 29 30 31 31 31 31 31 31 30 30 29 29 29 29 28 30 32 31 31 32 34 34 34 35 36 37 38 37 37 37 36 37 39 40 41 42 42 42 41 42 43 44 45 46 47 46 46 45 46 48 49 50
17 14 12 10 6 4 1 2 3 4 4 6 7 9 11 12 13 14 15 17 16 16 19 21 21 21 22 23 25 26 27 28 29 30 31 31 31 31 31 30 30 29 29 29 29 28 28 27 28 30 31 31 31 32 33 33 34 35 35 36 37 37 37 37 36 36 38 40 42 42 42 42 42 43 45 46 46 46 46 46 46 46 47 47 47
18 15 13 10 6 3 0 2 3 4 5 6 7 9 10 12 13 14 16 18 17 18 20 21 20 21 22 24 26 27 28 29 30 31 31 31 31 30 30 29 28 27 27 27 27 26 24 25 27 28 29 30 30 27 26 30 30 26 25 29 34 36 36 36 37 37 39 41 42 42 41 42 43 43 45 46 46 46 45 45 45 46 47 46 45
20 17 13 9 6 4 1 2 3 4 5 6 7 9 10 11 12 13 16 17 16 17 19 20 20 21 23 25 27 27 28 29 30 31 31 30 29 29 29 28 27 26 26 25 24 24 24 25 27 29 29 30 30 27 25 25 23 19 16 18 24 30 33 32 34 35 36 38 40 42 42 41 42 43 44 45 45 45 45 44 44 45 46 46 44
21 18 13 9 7 5 3 2 4 4 5 6 7 9 10 11 13 14 15 15 15 16 18 19 19 21 24 25 26 27 28 28 29 29 29 28 28 28 28 27 27 26 26 27 27 27 29 29 28 29 30 31 30 28 25 22 21 21 17 12 11 15 20 21 22 25 27 30 34 36 39 41 43 44 44 44 44 44 44 45 45 45 45 46 44
21 18 14 10 8 6 4 3 4 5 5 6 8 10 11 12 14 15 15 15 16 15 16 18 19 21 24 25 26 27 27 27 27 26 26 26 26 27 28 28 28 28 29 30 32 31 31 30 29 28 28 29 29 28 25 24 24 21 12 8 7 8 12 10 9 19 26 28 30 29 30 34 39 42 43 42 43 45 45 45 45 45 45 45 44
23 19 14 11 8 7 4 4 5 6 6 7 9 10 12 14 15 17 18 18 19 19 20 22 23 24 26 27 27 27 27 27 27 26 26 26 26 26 27 28 29 29 29 30 32 32 31 29 28 27 25 25 28 30 28 24 25 24 17 11 8 6 9 8 8 19 25 23 27 31 32 34 35 37 41 42 43 44 45 45 45 45 46 45 44
24 19 14 10 8 7 5 4 5 6 7 8 9 11 12 14 16 18 19 19 20 21 22 24 26 27 28 29 28 28 28 28 28 28 28 29 28 28 28 29 29 28 28 29 31 32 31 28 26 26 26 26 27 30 30 26 24 28 27 24 22 17 13 10 8 13 19 21 26 32 35 35 32 31 33 39 44 45 45 45 46 46 46 46 44
24 19 14 11 9 7 5 5 6 6 7 8 9 11 13 14 16 16 16 16 17 19 21 22 24 26 27 28 28 28 28 28 29 29 30 30 30 30 30 30 30 29 29 30 31 32 32 31 29 29 30 29 28 29 30 28 25 26 26 28 33 34 29 21 12 9 12 18 22 26 32 33 30 30 30 32 38 44 45 44 46 46 46 46 45
24 20 15 12 9 8 6 6 6 7 7 8 9 11 13 14 15 16 17 17 18 21 23 23 24 25 26 28 28 28 28 27 28 29 31 31 31 31 30 30 31 31 31 31 33 33 34 34 32 31 31 30 28 28 29 28 25 25 25 26 30 34 35 32 26 17 9 12 17 19 26 33 32 31 31 30 32 38 44 45 45 46 46 45 45
24 21 16 12 10 8 7 6 7 7 7 8 10 11 12 14 15 16 18 20 20 22 24 25 25 25 26 28 28 29 29 28 29 30 31 32 32 31 31 31 32 33 32 32 33 33 33 33 32 30 29 28 27 27 30 31 30 28 26 25 28 30 31 33 32 24 14 11 14 13 16 24 26 29 32 30 30 33 40 46 47 46 46 45 45
25 20 15 13 11 9 8 7 7 7 7 9 10 11 13 14 15 17 19 21 23 24 25 27 27 27 28 29 29 30 31 31 31 32 32 33 32 32 32 32 33 33 33 33 33 34 34 34 34 33 31 32 33 32 34 36 36 35 31 26 26 24 21 20 20 20 15 11 12 12 11 13 16 24 33 31 28 32 34 42 47 47 46 45 45
25 20 16 14 13 10 8 8 7 6 7 9 10 12 13 14 16 17 19 21 23 24 25 27 28 28 29 30 31 32 33 34 34 34 34 33 33 33 33 33 33 33 34 35 35 36 36 36 36 36 36 36 37 36 35 37 38 38 36 31 28 26 22 18 16 16 12 7 10 12 10 11 13 20 31 33 29 30 33 37 43 46 46 46 45
Wind_Direction
18 25 14 12 7 7 15 18 22 16 17 8 2 359 350 346 339 333 328 330 326 321 322 314 313 312 309 308 303 300 302 302 304 309 313 315 317 317 322 323 325 330 327 323 317 312 308 302 298 292 291 297 303 301 302 299 290 289 288 281 278 282 283 279 276 275 268 261 264 266 262 267 265 252 246 248 248 244 233 221 211 211 211 205 205
16 27 23 21 16 18 15 18 23 21 21 16 14 6 0 356 345 342 336 331 327 323 322 316 310 307 302 302 299 298 295 293 296 294 295 299 303 306 311 314 317 324 327 325 319 316 317 313 308 301 297 298 301 297 295 296 294 290 286 283 282 283 284 281 275 272 270 261 259 262 262 264 261 250 247 250 248 239 231 220 209 211 211 205 206
31 35 35 33 30 29 22 21 25 27 28 26 25 17 12 4 357 353 346 339 336 331 325 322 315 310 305 301 298 299 296 295 295 287 281 283 285 287 293 300 306 313 321 322 314 310 312 313 311 310 307 300 295 293 292 292 292 292 287 283 283 285 284 281 275 270 268 263 257 257 258 258 255 249 249 251 246 237 230 218 208 211 211 208 207
42 44 45 44 44 38 30 29 29 29 31 30 28 26 26 20 14 7 3 357 351 345 337 334 328 324 317 311 307 306 304 302 299 291 283 280 278 278 281 285 290 297 307 311 307 306 308 308 307 308 308 304 300 298 298 295 291 289 288 285 280 280 282 281 279 274 268 263 257 253 253 254 253 247 249 250 240 234 229 217 207 209 212 211 209
46 48 49 51 52 45 37 35 37 35 34 33 31 30 30 28 25 19 17 12 6 2 354 349 343 339 331 324 320 317 314 309 305 302 295 288 282 279 279 281 285 287 292 296 297 302 306 304 304 305 304 304 306 307 305 305 300 289 285 285 281 276 276 278 279 278 271 265 258 251 249 252 251 244 247 246 233 231 228 217 207 208 213 211 207
52 54 53 55 55 48 42 40 42 43 43 41 40 38 36 35 30 27 23 20 16 10 6 2 356 353 349 342 336 331 324 318 313 309 306 301 296 290 284 281 282 282 283 286 288 295 299 299 300 302 303 304 305 304 304 308 310 301 290 283 281 279 276 276 278 278 273 267 260 251 247 249 249 243 247 244 230 229 226 218 210 209 213 213 208
63 65 63 62 58 52 48 45 46 47 48 46 46 45 44 41 35 32 28 25 21 16 13 8 5 2 360 357 353 346 337 332 327 320 315 310 305 299 292 287 287 283 281 283 284 287 291 291 294 296 298 297 294 294 297 302 307 308 303 290 280 278 277 275 275 275 272 269 262 252 246 247 247 245 248 244 232 228 224 218 212 211 214 213 210
71 72 72 70 64 59 56 52 50 50 49 48 48 47 47 44 41 38 33 29 25 21 18 13 12 8 5 5 4 358 349 346 341 335 328 322 315 307 301 297 297 293 287 286 284 285 285 286 288 290 292 293 290 289 290 294 299 302 303 299 288 279 275 272 273 274 272 270 264 253 247 245 245 245 248 243 234 227 223 220 213 212 214 212 210
73 73 74 75 70 67 65 61 58 54 52 50 49 49 47 46 43 40 37 33 29 25 22 18 15 10 7 5 5 3 359 355 351 349 340 333 325 316 311 305 303 300 296 293 290 286 284 283 284 286 289 291 290 289 287 286 289 291 293 296 295 289 278 270 269 272 271 269 264 254 249 246 242 244 247 243 236 228 223 220 214 213 213 211 211
73 72 73 75 73 71 70 68 66 62 59 57 54 52 49 48 45 43 40 37 34 30 26 23 18 13 7 3 2 1 0 358 356 355 349 344 337 328 322 315 310 306 305 302 297 291 287 285 283 283 286 290 288 286 285 285 285 286 288 289 291 292 286 277 269 268 268 267 264 257 253 248 243 242 245 246 239 228 222 218 214 214 213 211 211
73 71 71 73 73 72 71 69 67 66 63 61 59 57 54 51 48 46 44 41 37 33 30 26 21 17 12 7 2 360 0 359 356 354 351 349 344 339 335 328 319 311 309 306 303 300 296 292 289 286 285 286 285 284 284 285 286 286 286 287 288 288 289 286 277 268 265 265 264 260 256 250 244 242 244 245 239 229 220 216 214 212 213 211 212
72 70 69 70 71 70 69 68 66 64 63 61 59 57 55 53 50 47 45 42 39 35 32 29 25 21 17 13 8 5 3 359 357 353 349 346 344 343 341 336 327 318 315 311 306 305 302 298 297 295 291 286 283 283 282 283 286 285 286 286 286 286 286 287 283 273 266 263 262 262 259 252 244 242 243 241 237 232 222 216 216 213 213 213 211
72 68 66 65 65 65 64 63 62 61 60 59 57 55 53 51 49 46 44 41 37 34 32 29 27 24 21 17 12 9 5 3 360 356 349 343 339 337 335 332 327 323 322 320 314 310 307 302 301 300 298 293 287 284 282 282 284 285 285 285 284 284 284 284 283 278 270 264 261 262 262 256 246 241 242 239 234 232 226 219 217 215 214 214 212
72 67 65 63 62 61 59 58 57 56 56 55 54 52 50 48 46 43 41 38 34 30 28 27 25 24 22 19 14 12 8 4 360 355 350 345 340 333 327 323 325 328 326 324 321 316 311 306 303 301 299 296 293 291 286 282 281 282 283 285 284 283 283 282 281 278 273 267 263 261 262 259 250 242 241 239 233 232 228 222 220 218 216 216 214
73 69 66 64 62 60 58 57 55 54 53 53 51 49 48 45 43 41 39 36 33 29 27 24 22 21 19 17 14 13 9 5 1 355 351 348 344 339 333 328 327 331 330 328 325 319 315 311 307 303 298 294 293 294 290 286 283 281 282 283 284 284 282 280 279 277 275 271 266 263 262 260 253 245 241 239 235 232 228 224 222 220 219 218 216
74 70 67 65 61 60 58 57 55 53 51 51 50 48 46 44 42 39 37 34 32 29 27 24 22 20 17 15 12 10 9 5 2 358 354 349 346 342 339 338 333 327 323 323 324 320 316 312 308 304 299 294 291 290 290 288 286 283 282 282 282 284 283 280 276 274 274 272 269 265 263 261 256 248 242 240 237 233 230 227 223 221 222 220 216
75 70 67 63 60 58 56 55 53 51 49 48 48 47 44 43 41 38 37 34 31 29 26 24 21 20 17 15 13 10 8 5 2 359 356 352 348 345 342 342 338 332 325 319 318 315 310 305 303 302 299 295 291 288 286 285 285 284 283 282 281 280 282 281 275 272 271 271 270 267 265 262 259 252 244 240 237 235 232 230 226 223 222 221 218
76 70 67 62 59 56 54 53 50 48 47 45 44 44 42 40 39 38 36 33 31 29 26 24 21 20 17 15 12 10 8 6 3 0 357 353 349 346 344 343 340 337 333 328 322 317 311 308 307 307 304 299 294 290 286 283 282 282 282 281 279 277 278 279 276 272 270 270 269 267 265 263 261 257 249 242 238 235 233 232 232 228 223 221 221
77 71 66 61 57 54 53 52 49 47 45 44 43 42 41 39 38 36 35 33 31 30 27 25 22 20 18 15 12 9 7 5 3 1 359 356 352 348 345 343 339 336 335 332 328 323 320 317 313 311 309 304 297 291 287 282 278 277 279 280 278 276 275 276 276 273 271 268 268 266 265 265 262 260 254 246 241 237 234 233 235 233 226 222 221
77 72 66 59 55 52 51 51 49 47 44 44 42 40 39 36 36 35 34 32 31 29 28 26 24 22 19 16 13 10 7 4 2 359 358 356 354 351 348 345 341 336 333 331 328 326 323 321 317 313 309 306 301 294 289 284 279 275 276 278 278 276 275 274 274 273 272 269 267 265 265 265 263 260 257 250 244 239 236 236 236 234 229 226 223
74 71 66 59 54 50 48 48 47 46 43 43 40 38 36 34 32 32 31 30 29 28 27 26 24 22 20 17 15 12 9 6 3 360 357 355 354 352 350 347 344 339 335 330 326 325 324 322 319 316 312 308 304 299 294 290 285 280 276 276 275 275 275 274 273 273 271 270 267 264 263 264 262 260 258 252 246 241 239 239 238 234 231 229 226
75 72 68 61 53 50 47 45 44 43 41 41 38 36 33 31 30 28 28 27 26 26 25 24 22 21 19 17 15 13 11 8 6 2 359 356 354 352 350 348 345 341 338 333 328 325 323 322 320 318 315 312 308 305 302 298 293 286 280 277 277 277 277 273 271 271 270 269 268 265 262 262 260 258 257 254 249 244 241 240 238 236 232 229 227
79 76 72 63 56 52 49 46 45 42 40 39 35 33 31 29 28 26 26 25 24 23 22 21 20 19 17 16 14 12 9 8 6 4 1 357 354 352 350 347 344 342 340 336 332 328 324 321 320 319 317 314 312 311 310 307 302 296 289 285 282 281 280 275 270 269 269 268 267 266 264 262 260 256 256 255 251 246 242 241 238 236 235 230 226
85 83 79 68 60 55 54 51 47 44 40 38 34 32 30 27 26 25 24 22 21 20 19 18 17 16 14 13 12 10 7 6 4 2 0 357 354 353 350 348 344 343 340 337 334 332 328 322 319 319 318 318 316 315 314 312 309 305 299 293 289 285 282 277 271 268 267 268 267 266 265 263 260 257 256 254 252 248 243 241 238 236 235 232 226
93 91 84 71 60 54 54 53 49 45 39 35 34 31 29 27 26 25 23 22 20 18 17 15 14 13 12 10 9 7 6 4 2 359 358 355 353 351 349 348 344 342 341 339 336 334 332 328 323 320 320 320 319 317 316 314 311 307 302 296 293 290 284 278 273 269 268 268 267 266 265 264 261 258 256 255 252 250 246 241 238 237 235 232 226
101 96 87 73 58 53 52 52 49 43 38 34 33 31 29 27 26 25 23 23 22 21 19 18 16 15 13 11 8 7 5 2 360 357 355 352 349 348 346 345 343 341 341 338 336 334 332 330 327 323 321 320 318 317 315 315 312 308 304 297 293 290 285 279 271 266 268 269 268 267 265 264 263 259 255 254 253 250 248 244 240 237 237 234 228
113 104 96 81 63 58 55 56 52 43 39 37 36 34 32 30 28 26 23 22 22 22 21 21 19 18 16 14 11 7 4 0 357 354 351 348 345 344 342 341 340 339 338 336 334 333 331 329 327 324 321 319 317 315 313 312 311 309 305 300 295 289 287 283 273 266 268 270 269 267 265 264 264 261 256 254 254 251 247 247 243 238 237 236 232
131 122 116 97 77 71 68 68 58 46 41 40 40 37 35 33 30 28 23 21 21 22 21 21 20 19 18 17 13 8 4 358 354 350 346 343 342 342 341 340 338 336 335 333 331 330 329 327 324 322 320 319 317 315 313 311 309 309 306 302 298 293 289 287 282 276 272 270 269 267 266 265 263 262 258 254 253 252 248 247 246 241 238 237 234
147 140 130 107 89 80 79 77 58 46 41 41 42 39 38 34 30 26 21 19 21 22 21 21 20 20 19 18 14 7 2 355 350 346 343 342 341 341 341 339 336 334 333 331 330 328 326 324 322 318 317 317 316 315 313 310 308 308 307 304 300 296 293 289 286 281 273 269 268 267 266 265 263 261 260 256 253 251 249 247 246 243 239 238 235
155 144 131 114 93 84 88 77 51 42 39 41 40 38 36 32 29 24 19 19 21 21 21 22 21 21 20 17 12 4 359 354 351 351 348 345 343 342 340 338 335 333 332 329 328 326 324 322 320 316 314 312 312 312 311 309 307 306 305 303 300 298 294 290 287 284 277 270 266 266 266 265 263 261 259 257 254 251 249 247 246 244 241 240 237
157 145 135 123 101 93 94 68 45 42 38 39 37 35 33 29 26 21 18 19 20 20 20 21 21 20 19 14 8 3 359 359 357 356 354 350 347 343 339 336 333 332 331 327 325 322 321 320 318 315 312 309 307 307 307 306 305 304 303 302 301 298 294 291 289 286 282 275 269 266 264 263 262 261 259 257 255 253 250 248 247 245 243 241 239
158 150 145 133 115 108 97 60 43 43 40 40 37 35 31 26 22 19 17 18 18 18 19 19 19 18 16 12 7 4 2 2 359 356 356 354 348 342 337 333 330 328 326 323 320 318 317 316 315 314 311 308 305 303 302 300 300 302 302 301 300 298 295 294 291 287 284 280 275 269 263 260 260 260 260 258 256 253 251 249 249 248 245 243 242
161 157 154 143 129 120 104 55 48 49 45 43 37 34 27 21 18 15 14 15 15 16 18 18 17 17 14 11 6 3 3 2 360 358 357 354 347 342 339 336 333 329 325 323 321 318 315 313 312 312 311 309 305 302 300 296 296 298 299 298 298 296 295 294 291 288 285 282 278 273 266 260 258 259 259 258 257 254 252 250 249 249 246 244 245
166 165 160 151 152 148 132 66 59 56 51 46 36 30 21 15 12 11 10 9 11 13 16 16 16 15 12 10 5 2 3 1 360 358 356 351 345 342 340 338 334 329 327 326 325 321 317 312 311 310 309 308 305 303 300 295 294 295 296 296 296 295 295 293 290 288 284 281 279 276 270 262 258 257 257 258 257 255 253 251 249 249 247 244 245
171 169 164 160 170 171 159 95 67 59 53 40 26 21 11 8 6 6 4 2 6 10 13 14 13 12 9 7 4 1 1 359 359 356 353 350 344 341 338 335 331 328 328 328 327 325 322 316 313 310 307 306 304 302 299 295 294 293 293 294 293 294 295 292 290 288 284 281 279 276 272 265 258 254 254 255 256 255 254 252 250 249 248 245 244
175 172 169 169 178 181 169 104 61 51 42 26 15 10 1 1 0 360 358 356 1 7 11 12 10 8 5 4 1 359 358 357 356 354 351 349 345 340 336 333 329 328 328 328 327 325 324 319 315 310 306 303 302 300 298 295 294 294 293 291 290 291 292 291 289 287 284 282 278 275 272 267 258 253 253 253 253 254 254 253 251 249 248 246 245
177 174 173 174 184 184 170 75 50 37 28 17 3 359 355 355 355 356 353 351 356 2 8 9 8 5 3 2 359 357 356 354 353 352 350 348 346 341 338 335 332 330 329 327 326 324 324 322 318 314 307 302 300 297 295 295 294 294 293 290 289 288 287 287 287 286 285 282 278 273 270 267 260 253 251 251 250 251 252 252 252 251 248 247 246
179 177 177 180 188 183 160 52 37 24 16 3 353 351 351 351 352 352 348 347 352 357 3 7 6 3 2 359 355 354 353 352 350 349 348 347 345 343 340 338 335 333 330 326 324 323 323 322 318 316 309 302 297 295 293 293 293 292 291 289 288 286 284 283 284 284 283 280 276 273 269 266 263 257 250 248 248 248 250 250 250 251 250 248 247
180 179 181 185 186 179 137 44 21 12 4 351 349 347 347 347 347 347 345 345 348 351 0 4 4 2 359 355 352 351 351 349 348 347 346 345 344 343 341 339 336 332 328 324 321 321 320 318 314 312 309 300 293 292 293 292 291 288 286 287 287 285 282 281 281 281 280 277 274 272 268 265 263 260 253 247 247 247 247 248 247 249 250 249 248
182 182 184 187 184 174 116 34 5 356 350 343 344 342 345 345 343 343 340 343 345 349 358 2 1 360 355 350 348 349 349 347 346 345 344 343 342 341 337 335 333 329 324 319 317 316 315 313 311 308 306 299 291 288 290 292 291 287 285 286 286 284 282 280 278 275 275 275 272 270 267 263 260 258 255 249 246 246 246 246 246 246 248 249 249
182 185 185 186 187 178 132 14 354 345 338 335 339 338 342 343 340 336 335 340 344 347 354 357 356 355 351 347 346 347 346 345 344 343 342 341 339 336 333 330 328 324 318 313 311 308 306 306 307 306 304 301 296 290 289 292 293 291 290 290 288 285 283 280 276 272 271 270 269 266 263 261 257 255 254 250 245 245 245 244 245 245 246 247 247
183 186 186 186 189 192 218 343 341 331 329 326 329 334 337 339 334 329 330 336 342 344 348 352 351 350 348 345 345 345 343 342 342 340 338 336 333 330 327 325 323 320 315 311 307 302 300 301 304 304 303 300 297 295 294 291 288 291 296 296 292 290 287 280 274 271 270 270 267 261 258 256 254 253 251 248 244 243 243 243 243 244 244 244 245
186 185 186 187 192 200 223 301 326 320 321 318 323 329 334 336 331 329 330 333 339 341 344 351 349 345 344 343 342 341 340 339 338 336 333 330 327 325 323 321 320 318 315 311 306 303 302 302 302 301 301 298 295 294 295 289 283 288 294 289 291 301 296 282 273 273 275 275 271 263 257 253 251 251 250 246 243 243 243 242 242 242 242 242 242
187 185 186 190 197 202 224 277 312 314 315 316 322 328 332 335 332 332 335 335 336 336 341 349 346 339 339 338 338 337 335 333 331 329 326 323 321 320 320 319 317 316 315 310 307 305 303 302 300 297 297 298 296 294 293 290 285 284 284 281 289 295 287 289 296 289 285 282 279 277 269 261 253 248 245 242 240 241 241 241 240 241 240 239 239
188 187 188 193 199 204 224 271 301 310 314 319 324 328 332 334 334 337 341 341 339 338 342 345 340 335 334 334 334 333 330 328 327 325 322 320 318 318 318 316 315 315 313 309 306 304 302 299 297 293 291 293 297 297 293 289 285 278 269 268 283 275 269 296 321 297 290 283 282 287 284 278 269 255 244 239 239 241 240 240 240 239 238 237 236
190 188 190 195 201 206 226 268 296 309 316 323 326 329 332 334 338 341 341 339 336 337 340 339 334 331 330 330 330 329 327 325 325 324 323 321 318 318 317 315 314 313 310 306 303 301 299 296 293 290 288 287 292 295 293 289 285 278 271 265 266 267 273 295 309 293 293 286 280 285 286 281 279 272 255 241 237 240 240 239 237 237 236 234 233
190 187 190 198 203 209 229 266 295 310 317 324 326 328 332 335 339 338 334 330 326 328 332 330 325 324 324 324 323 323 322 321 322 322 322 321 318 317 316 315 312 309 306 302 298 297 295 292 290 287 286 284 283 284 287 289 286 278 274 270 268 265 264 268 271 277 294 290 279 280 285 281 275 278 277 259 243 238 238 237 235 234 233 231 230
188 186 190 199 204 212 231 266 294 307 314 322 325 328 333 335 336 333 329 329 326 325 327 325 322 320 319 319 318 317 318 318 318 320 321 320 318 316 314 312 310 306 304 300 297 297 295 294 292 288 285 281 276 275 280 284 283 280 280 279 275 270 263 257 256 258 271 287 283 282 285 283 277 275 281 280 265 247 236 234 233 231 230 228 227
187 187 192 199 204 213 235 266 289 301 312 320 324 329 333 333 332 330 328 330 329 325 325 323 322 321 317 315 315 315 316 316 316 318 319 319 317 314 312 310 307 305 302 299 297 297 296 294 293 290 285 279 274 273 277 279 278 278 279 279 278 276 268 256 250 249 249 261 278 286 288 289 287 279 276 279 281 269 246 234 231 230 228 226 225
187 189 191 196 204 214 238 266 286 300 312 319 324 329 332 331 332 332 331 330 327 325 326 324 323 321 316 314 315 315 316 316 317 317 317 316 315 312 310 307 304 302 299 297 296 295 294 291 289 287 282 279 277 274 274 274 274 273 273 272 273 275 271 259 245 240 244 251 263 273 279 285 288 284 279 275 278 282 267 243 231 227 227 224 223
186 188 191 197 204 215 241 269 286 301 312 320 325 329 331 331 333 334 331 328 325 325 324 321 320 318 314 313 314 314 315 316 317 316 315 314 312 310 307 304 302 299 296 295 295 294 292 290 288 285 282 279 277 275 273 271 271 269 267 264 265 267 266 264 251 237 237 239 254 266 268 269 273 277 279 277 276 281 281 264 240 226 224 224 222